Location: Celina Division
(33.3022°N, 96.7580°W)
Time: 04:13:50
(UTC+00:00)

Cosmos 1812 - Pass Details

Date: 28 June 2022
Orbit: 508 x 515 km, 82.5° (Epoch: 07 August)

Event Time Altitude Azimuth Distance (km) Brightness Sun altitude
Rises 09:27:34 0° 333° (NNW) 2,631 6.6 -19.4°
Reaches altitude 10° 09:30:18 10° 312° (NW) 1,738 5.3 -19.0°
Enters shadow 09:31:26 14° 296° (WNW) 1,486 4.8 -18.9°
